Showing default

FOX-1, 40967

Orbit data source: Space-Track

FOX-1, 40967 is a payload satellite owned by AMSAT-NA (US) in LEO that was launched on Thu, 08 Oct 2015 UTC via an ATLAS V 401 launch vehicle from the Air Force Western Test Range (AFWTR). Payload-class satellites include a variety of spacecraft equipped with specific instruments for various scientific and technological missions. These include communications satellites like Starlink; space stations such as the ISS; scientific satellites like the Hubble; Earth observation satellites from companies like Planet Labs, Umbra, and HawkEye 360; GPS; miniature CubeSats for education and research; and military/defense satellites.

Loading next visibility...
Identifier
40967, 2015-058D
Orbit
LEO
Country
Flag of USUS
Related business
Manufacturer
AMSAT-NA
Mission
Operational Amateur Com/Tech
Bus & Motor
CUBESAT 1U, Unknown motor
Mass
1 kg wet, 1 kg dry
Launch date (UTC)
2015-10-08 (10 years ago)
Launch vehicle
ATLAS V 401
Launch site
Air Force Western Test Range (AFWTR)
Object type
Payload
Rocket body
Debris
Shape & HBR
Box, 0.1 m
Radar Cross Section
0.015 m², Medium (>0.1 m² and < 1m²)

Expand to show TLE details & history
Last TLE update: 13 hours ago

TLE from 13 hours ago
0 FOX-1
1 40967U 15058D   25303.29893832  .00003451  00000-0  31798-3 0  9996
2 40967  64.7750 272.5244 0140105 146.3256 214.6857 14.89221222 79317
Epoch: 2025-10-30T07:10Z
TLE epoch observation values (Epoch: 2025-10-30T07:10:28.270Z)
Latitude
-0.00006°
Longitude
126.04686°
Altitude
683.216 km
Speed
7.472 km/s
True Right ascension
18h 10m 05s
True Declination
0° 00' 00"
Sunlit
Object was in daylight at epoch
Visualization orbit readout
Latitude
Unknown
Longitude
Unknown
Altitude
Unknown
Speed
Unknown
Apparent Right ascension
Unknown
Apparent Declination
Unknown
Sunlit
N/A
Visualization observer readout
Local Sidereal Time
16:07:02
Azimuth
Unknown
Elevation
Unknown
Doppler factor
Unknown
Orbital elements
Apogee altitude
696.688 km
Perigee altitude
501.183 km
Semi-major axis
6,977.072 km
Eccentricity
0.01401
Inclination
64.775°
RAAN
272.5244°
Arg. of periapsis
146.3256°
True anomaly
213.78507°
Mean anomaly
214.6857°
Eccentric anomaly
214.2341°
Mean motion
3.7242 °/min
Orbital period
96.66 mins
BSTAR
0.00031798
Loading maneuver chart data...
Computing Atmospheric mass density...
Loading historical data...
Loading historical data...
Loading historical data...
Loading historical data...
Loading historical data...
Loading historical data...
Loading historical data...

Documentation

Showing up to 5 results
|